Location: ??????????
(44.2167°N, 135.5333°E)
Time: 15:24:51
(UTC+00:00)

Meteor 1-12 Rocket - Pass Details

Date: 15 June 2025
Orbit: 854 x 924 km, 81.2° (Epoch: 15 July)

Event Time Altitude Azimuth Distance (km) Brightness Sun altitude
Rises 12:45:20 0° 351° (N) 3,519 8.7 -15.9°
Reaches altitude 10° 12:47:48 10° 353° (N) 2,584 7.8 -16.1°
Maximum altitude 12:53:42 72° 78° (ENE) 956 4.4 -16.7°
Enters shadow 12:57:07 27° 158° (SSE) 1,694 5.2 -17.0°
